Regional Weather Roundup
Issued by NWS Newport/Morehead, NC

Current Version | Previous Version | Text Only | Print | Product List | Glossary Off
Versions: 1 2 3 4 5 6 7 8 9 10 11 12 13 14 15 16 17 18 19 20 21 22 23 24 25 26 27 28 29 30 31 32 33 34 35 36 37 38 39 40 41 42 43 44 45 46 47 48 49 50
391 ASUS42 KMHX 171825 RWRMHX WEATHER ROUNDUP FOR EASTERN NORTH CAROLINA NATIONAL WEATHER SERVICE NEWPORT/MOREHEAD CITY NC 100 PM EST SUN DEC 17 2017 NOTE: "FAIR" INDICATES FEW OR NO CLOUDS BELOW 12,000 FEET WITH NO SIGNIFICANT WEATHER AND/OR OBSTRUCTIONS TO VISIBILITY NCZ015>017-031-032-045>047-102-103-171900- NORTH COAST CITY SKY/WX TMP DP RH WIND PRES REMARKS EDENTON PTSUNNY 52 32 46 W3 30.26F ELIZABETH CITY CLOUDY 51 37 58 SW8 30.26F KITTY HAWK PTCLDY 50 30 47 CALM 30.24S MANTEO MOSUNNY 48 37 64 SW6 30.26R $$ NCZ045>047-081-094-103-104-171900- CENTRAL COAST CITY SKY/WX TMP DP RH WIND PRES REMARKS FRISCO MOSUNNY 51 36 56 NW6 30.25F $$ NCZ095-097-098-100-101-171900- SOUTHERN COAST CITY SKY/WX TMP DP RH WIND PRES REMARKS BEAUFORT MOSUNNY 54 38 54 SW7 30.27F CEDAR ISLAND NOT AVBL JACKSONVILLE SUNNY 54 34 46 E10 30.25F PINEY ISLAND N/A N/A N/A N/A SW10 30.26F WILMINGTON SUNNY 60 38 43 W3 30.24F $$ NCZ011>013-027>030-043-044-078>080-089-090>093-098-171900- COASTAL PLAIN CITY SKY/WX TMP DP RH WIND PRES REMARKS AHOSKIE CLOUDY 47 32 55 S7 30.23F CLINTON MOSUNNY 56 34 42 SW5 30.23F ELIZABETHTOWN NOT AVBL GOLDSBORO CLOUDY 55 29 38 SW7 30.22F GREENVILLE CLOUDY 52 32 46 SW7 30.25F HAVELOCK SUNNY 55 32 41 SW8 30.28 KENANSVILLE MOSUNNY 55 30 38 S3 30.23F KINSTON CLOUDY 54 30 40 S7 30.25F NEW BERN CLOUDY 53 31 42 SW6 30.28F RICHLANDS SUNNY 57 32 38 SW7 30.26F ROCKY MOUNT MOSUNNY 51 31 46 SW7 30.24F WASHINGTON CLOUDY 54 29 38 SW7 30.25F WHITEVILLE SUNNY 58 35 42 S7 30.24F $$ AMZ130-135-150-152-154-156-158-170-250-252-270-ANZ085-086-088-633-658-670-171900- MARINE OBSERVATIONS STATION/POSITION TIME TEMP WIND PRES WAVE SWELL AIR SEA DIR/SP/G HT/PER HT/PER (UTC) (F) (DEG/KT/KT) (MB) (FT/S) (FT/S) CHESAPEAKE LIGHT NOT AVBL 64 E VA BEACH 1750 52 60 220/ 8/ 10 1024.6 2/ 8 2/ 8 DUCK 1800 49 52 240/ 7/ 9 1024.0 2 E DUCK 1800 54 N/A 1/11 OREGON INLET 1800 45 44 190/ 8/ 9 1024.3 13E OREGON INLT 1748 60 N/A 1/ 6 2/ 6 HATTERAS CG 1800 48 53 300/ 5/ 6 1024.2 DIAMOND BUOY 1810 57 72 240/ 10/ 12 1024.4 CAPE LOOKOUT 1800 240/ 3/ 4 1025.3 BEAUFORT LAB 1800 53 49 220/ 4/ 8 1025.0 30 SE NEW RVR IN 1808 58 63 220/ 4/ 6 1024.5 30 SE NEW RVR IN 1800 63 N/A 2/ 8 27 SE WRIGHTSVLE 1808 59 62 300/ 2/ 4 1024.5 5 SE WRIGHTSVLE 1808 55 55 CALM / 2 1024.5 225 S CAPE HAT 1750 65 74 180/ 6/ 8 1024.7 3/ 9 3/ 9 41 SE CHARLESTON 1810 62 72 120/ 2/ 4 1023.7 $$

USA.gov is the U.S. government's official web portal to all federal, state and local government web resources and services.